map of KER home
KER - Airport
Location
City:  Kerman, Kerman, Iran
ICAO:OIKK
IATA:KER

Details
Type:Airport (Aerodrome, Airfield)
Use:Public/Civil
Latitude:3016'28"N (30.274444)
Longitude:5657'04"E (56.951111)
Datum:WGS 1984
Elevation:5741 ft (1750 m)
Variation:2.97E (WMM2015 magnetic declination)
0.05 annual change
Runways:2
Longest:12620 × 148 ft (3847 × 45 m), paved

Time
Time Zone:UTC+3:30 (DST+4:30)
Local Time:

Weather
METAR:OIKK 130800Z 11004KT CAVOK 17/M19 Q1024 A3026
TAF:OIKK 130530Z 1306/1412 11004MPS CAVOK

Related Locations
Nearby:
Farthest:IPC: 11591 mi / 18654 km
Easter Island (Isla de Pascua, Rapa Nui) [Mataveri Intl], VS, CL

Find:

   beyond  
but within

Other Information
Maps:
NOTAMs:
Links:
Sources:

  
  • flag of Iran
  

Sectional Chart

Flight Planning
at skyvector.com

Satellite Image

Google Maps Satellite view

 

Copyright © 2004-2018 Karl L. Swartz. All rights reserved.
The Great Circle Mapper name and logo are trademarks of the Great Circle Mapper.
All other trademarks mentioned herein belong to their respective owners.
Please see credits for attibutions and further copyright information.

  Follow gcmap on Facebook Follow gcmap on Twitter Follow gcmap on Google+ GCmap on LinkedIn

hCard Microformat

Geo Microformat